Powrót do katalogu

FENGYUN 1C DEB

AktywnySSO
NORAD 30196·DEBRIS·🇨🇳 China

Wystrzelony May 10, 1999 z Taiyuan Satellite Launch Center

Loading…

Następne Przeloty (najbliższe 24 godziny)

TLE

ŚwieżeSource: Space-Track

Epoka: Sep 14, 2026, 05:51 UTC

1 30196U 99025VD  26257.24419461  .00000043  00000-0  35211-4 0  9990
2 30196  98.6357 350.7078 0085456 340.3588  45.3359 14.25924262 22884

Śledź FENGYUN 1C DEB w czasie rzeczywistym z AllMySat

Download on the App Store